Regional Weather Roundup
Issued by NWS

Home | Current Version | Previous Version | Graphics & Text | Print | Product List | Glossary On
Versions: 1 2 3 4 5 6 7 8 9 10 11 12 13 14 15 16 17 18 19 20 21 22 23 24 25 26 27 28 29 30 31 32 33 34 35 36 37 38 39 40 41 42 43 44 45 46 47 48 49 50
000
ASUS43 KMKX 192211
RWRWI

WISCONSIN REGIONAL WEATHER ROUNDUP
NATIONAL WEATHER SERVICE MILWAUKEE/SULLIVAN WI
500 PM CDT SUN APR 19 2015

NOTE: "FAIR" INDICATES FEW OR NO CLOUDS BELOW 12,000 FEET WITH NO
SIGNIFICANT WEATHER AND/OR OBSTRUCTIONS TO VISIBILITY.

WIZ001-002-006>008-014>016-023>028-192300-
NORTHWEST WISCONSIN

CITY           SKY/WX    TMP DP  RH WIND       PRES   REMARKS
SUPERIOR ARPT  CLOUDY    36  36  99 E7        29.61S FOG     WCI  30
ASHLAND        CLOUDY    47  40  76 N5        29.57F
HAYWARD        LGT RAIN  54  43  66 SE6       29.56F
SIREN          RAIN      52  50  92 W9        29.57S
CUMBERLAND     RAIN      52  48  87 CALM      29.55F
RICE LAKE      CLOUDY    57  43  60 SE9       29.56F
CHETEK         CLOUDY    53  44  72 E12       29.55F
LADYSMITH      LGT RAIN  51  46  84 CALM      29.59F
EAU CLAIRE     LGT RAIN  52  48  86 NE3       29.55F
MENOMONIE      LGT RAIN  56  46  68 E8        29.55F
NEW RICHMOND   CLOUDY    54  50  87 NW9       29.57S
OSCEOLA        CLOUDY    55  45  69 NW15G22   29.60F
$$

WIZ003>005-009-010-017-018-192300-
NORTH CENTRAL WISCONSIN

CITY           SKY/WX    TMP DP  RH WIND       PRES   REMARKS
MANITOWISH WTR CLOUDY    58  39  48 S10       29.58F
ARBOR VITAE    CLOUDY    60  37  42 S7        29.58F
WOODRUFF       CLOUDY    60  37  42 S7        29.58F
RHINELANDER    CLOUDY    60  36  40 SE10      29.59F
EAGLE RIVER    CLOUDY    58  31  35 SE7G17    29.60F
LAND O LAKES   CLOUDY    60  32  34 SE10G17   29.60F
PHILLIPS       CLOUDY    52  46  82 CALM      29.57F
TOMAHAWK       CLOUDY    61  36  39 SE3       29.58F
MEDFORD        CLOUDY    62  39  43 SE9       29.56F
MERRILL        CLOUDY    62  38  41 SE13      29.57F
$$

WIZ029-030-035-036-043>047-192300-
CENTRAL WISCONSIN

CITY           SKY/WX    TMP DP  RH WIND       PRES   REMARKS
WAUSAU         CLOUDY    65  37  35 SE13      29.55F
MOSINEE        PTSUNNY   64  36  34 SE9       29.58F
MARSHFIELD     CLOUDY    66  39  37 E10       29.54F
STEVENS POINT  CLOUDY    64  36  35 E10G17    29.56F
WAUPACA        PTSUNNY   68  32  27 E15       29.58F
WAUTOMA        PTSUNNY   71  36  27 E15       29.55F
WISC RAPIDS    CLOUDY    71  36  27 E10       29.54F
CAMP DOUGLAS   CLOUDY    73  40  30 NW6       29.50F
$$

WIZ011>013-019>022-031-037>040-048>050-192300-
NORTHEAST WISCONSIN

CITY           SKY/WX    TMP DP  RH WIND       PRES   REMARKS
ANTIGO         CLOUDY    59  37  42 SE15      29.61F
SHAWANO        PTSUNNY   63  35  34 E9        29.62F
OCONTO         PTSUNNY   58  33  38 NE7       29.62F
STURGEON BAY   MOSUNNY   57  30  35 NE7       29.66F
GREEN BAY      PTSUNNY   57  37  47 NE16      29.61F
MANITOWOC      PTSUNNY   55  32  41 NE8       29.61F
APPLETON       PTSUNNY   66  30  26 SE13      29.59F
CLINTONVILLE   PTSUNNY   64  34  32 E10       29.60F
OSHKOSH        PTSUNNY   66  36  32 SE13      29.57F
$$

WIZ032>034-041-042-053>061-192300-
SOUTHWEST WISCONSIN

CITY           SKY/WX    TMP DP  RH WIND       PRES   REMARKS
LA CROSSE      LGT RAIN  55  51  86 W10       29.53F
SPARTA         CLOUDY    65  41  41 N6        29.53F
VIROQUA        CLOUDY    66  45  47 N6        29.51F
BOSCOBEL       CLOUDY    76  43  30 N8        29.47F
PRAIRIE DU CHI CLOUDY    68  43  41 NW10      29.47F
PLATTEVILLE    CLOUDY    73  44  35 E9        29.47F
$$

WIZ056-057-062-063-064-067-068-192300-
SOUTH CENTRAL WISCONSIN

CITY           SKY/WX    TMP DP  RH WIND       PRES   REMARKS
REEDSBURG      CLOUDY    72  43  34 E10       29.49F
BARABOO/DELLS  PTSUNNY   71  38  29 SE15      29.50F
LONE ROCK      CLOUDY    72  44  36 E13       29.47F
MINERAL POINT  CLOUDY    72  37  28 E7        29.48F
MADISON        CLOUDY    69  39  33 SE17      29.51F
MIDDLETON      CLOUDY    70  35  27 E13       29.51F
WATERTOWN      CLOUDY    64  35  34 SE16      29.54F
MONROE         CLOUDY    70  43  37 E10G16    29.49F
JANESVILLE     PTSUNNY   70  36  28 E16       29.51F
$$

WIZ051-052-058>065-066-070>072-192300-
SOUTHEAST WISCONSIN

CITY           SKY/WX    TMP DP  RH WIND       PRES   REMARKS
MILWAUKEE      CLOUDY    46  32  58 NE13      29.58F
WAUKESHA       MOSUNNY   57  34  41 E12       29.57
MILWAUKEE/TIMM SUNNY     55  28  35 E8        29.59F
RACINE         CLOUDY    47  34  60 NE12      29.59F
BURLINGTON     CLOUDY    56  34  42 E10G18    29.54F
KENOSHA        CLOUDY    57  36  45 NE10      29.55F
FOND DU LAC    PTSUNNY   66  33  29 SE13G26   29.56F
SHEBOYGAN      PTSUNNY   52  34  50 NE8       29.60F
WEST BEND      CLOUDY    59  30  33 E10G16    29.58F
JUNEAU         PTSUNNY   64  35  35 E12       29.56F
$$

LSZ147-162-192300-
LAKE SUPERIOR

STATION/POSITION TIME  TEMP    WIND        PRES    WAVE
                       AIR SEA DIR/SP/G            HT/PER
                 (UTC) (F)     (DEG/KT/KT) (MB)    (FT/S)
DEVILS ISLAND    2200   36      30/ 11/ 13 1002.7F
PORT WING        2100   37      30/ 12/ 16 1002.7F
SAXON HARBOR     2100   55     200/  5/ 17 1001.7
$$

LMZ867-665-643>646-192300-
LAKE MICHIGAN

STATION/POSITION TIME  TEMP    WIND        PRES    WAVE
                       AIR SEA DIR/SP/G            HT/PER
                 (UTC) (F)     (DEG/KT/KT) (MB)    (FT/S)
CHAMBERS ISLAND  2100   40     360/ 10/ 13 1006.1F
NORTHPORT PIER   2100   42      70/ 15/ 20 1005.8F
KEWAUNEE LAKESHO 2100   46      30/ 12/ 15 1003.9F
SHEBOYGAN LAKESH 2200   42      10/  9/ 10 1003.2F
PORT WASHINGTON  2100   48      40/  9/ 11 1004.1
MILWAUKEE LAKESH 2100   47      20/ 13/ 15   N/A
KENOSHA   LAKESH 2200   46      20/ 16/ 19 1000.7F
$$

TC  - TEMPERATURE IN CELSIUS
VSB - VISIBILITY IN STATUTE MILES
WCI - WIND CHILL INDEX
HX  - HEAT INDEX



USA.gov is the U.S. government's official web portal to all federal, state and local government web resources and services.